Regional Weather Roundup
Issued by NWS Kansas City/Pleasant Hill, MO

Home | Current Version | Previous Version | Graphics & Text | Print | Product List | Glossary Off
Versions: 1 2 3 4 5 6 7 8 9 10 11 12 13 14 15 16 17 18 19 20 21 22 23 24 25 26 27 28

000
ASUS43 KEAX 230210
RWREAX

WEATHER ROUNDUP FOR EASTERN KANSAS AND NORTHWEST MISSOURI
NATIONAL WEATHER SERVICE KANSAS CITY/PLEASANT HILL MO
900 PM CDT WED MAR 22 2017

KSZ040-057-103>105-MOZ028-029-037-043-230300-
...KANSAS CITY METROPOLITAN AREA...

CITY           SKY/WX    TMP DP  RH WIND       PRES   REMARKS
K.C. INTL      CLOUDY    52  27  38 SE21      30.20F
K.C. DOWNTOWN  CLOUDY    54  25  32 E12G23    30.19F
LEES SUMMIT    CLOUDY    52  26  36 E12       30.22S
OLATHE - IXD   CLOUDY    52  28  39 E16G26    30.19S
OLATHE - OJC   CLOUDY    51  28  41 E17G25    30.19F
LAWRENCE       CLOUDY    53  28  38 E17G26    30.18F

$$

MOZ001>008-011>017-020>025-030>033-038>040-044>046-053-054-230300-
...NORTHERN AND CENTRAL MISSOURI...

CITY           SKY/WX    TMP DP  RH WIND       PRES   REMARKS
ST. JOSEPH     CLOUDY    50  27  40 E17G23    30.21F
MOSBY          CLOUDY    50  25  37 E12G18    30.23S
WARRENSBURG    CLOUDY    50  25  37 E15       30.24S
WHITEMAN AFB   CLOUDY    51  24  34 E14G21    30.23S
CLINTON        CLOUDY    52  28  40 E12       30.21F
SEDALIA        CLOUDY    51  23  33 E17G25    30.26S
WARSAW         NOT AVBL
CHILLICOTHE      N/A     45  21  38 E10       30.28F
KIRKSVILLE     CLOUDY    42  16  34 E9        30.32S

$$

MOZ041-047>049-056>058-063>065-088>090-097-230300-
...EASTERN AND SOUTHERN MISSOURI...

CITY           SKY/WX    TMP DP  RH WIND       PRES   REMARKS
ST. LOUIS INTL CLOUDY    47  17  30 E13       30.37S
SPIRIT OF STL  CLOUDY    45  20  36 E5        30.36R
COLUMBIA       PTCLDY    45  22  40 E12       30.30F
JEFFERSON CITY PTCLDY    50  21  32 E10       30.31S
ROLLA          CLOUDY    46  22  38 E12       30.29S
OSAGE BEACH    CLOUDY   N/A N/A N/A E14G21    30.27S
SPRINGFIELD    CLOUDY    56  32  40 SE12      30.21R
BRANSON        CLOUDY    52  32  46 SE13      30.23S
JOPLIN         CLOUDY    55  38  52 SE10      30.18S
WEST PLAINS    CLOUDY    53  29  39 SE8       30.28R

$$

IAZ060-094-KSZ022-034>040-054-083-096-NEZ052-066-093-230300-
...KANSAS...SOUTHEAST NEBRASKA AND IOWA...

CITY           SKY/WX    TMP DP  RH WIND       PRES   REMARKS
TOPEKA         CLOUDY    54  31  41 E12       30.16F
MANHATTAN      CLOUDY    55  28  35 E10       30.12F
EMPORIA        CLOUDY    55  33  43 SE10      30.13F
CHANUTE        CLOUDY    56  34  43 E13       30.15F
WICHITA        PTCLDY    53  40  61 E14       30.08S
OMAHA          CLOUDY    47  24  40 SE16      30.19S
LINCOLN        CLOUDY    52  26  36 SE15      30.15S
FALLS CITY     CLOUDY    51  25  36 E15       30.17S
LAMONI         MOCLDY    42  21  43 SE8       30.26S
DES MOINES     CLOUDY    44  21  40 SE13      30.29S

$$





USA.gov is the U.S. government's official web portal to all federal, state and local government web resources and services.